GFSSE_925_rhum_219.txt.gz
RH
49 79 59 64 70 81 85 92 88 88 85 83 80 75 70 76 78 74 77 76 74 84 86 91 92 92 94 96 100 100 95 92 96 89 83 62 45 59 64 88 77 80 78
55 71 61 74 86 91 92 94 87 83 71 63 62 65 72 72 75 75 74 75 71 73 73 75 78 81 83 86 90 98 98 94 90 91 87 82 70 52 61 68 81 85 88
54 69 84 84 90 89 92 88 82 69 55 45 42 52 62 68 71 72 72 71 73 73 74 74 76 77 79 81 79 84 91 87 84 88 85 83 79 69 50 64 69 67 68
55 66 79 85 86 92 88 82 68 51 41 38 40 52 67 72 73 75 72 71 72 74 75 76 78 81 82 80 81 82 86 61 49 71 74 84 86 83 79 57 82 94 96
60 60 83 84 91 88 80 66 48 41 39 43 47 54 68 69 71 72 70 68 73 75 76 75 77 80 81 82 80 77 76 29 22 29 53 68 84 84 94 93 91 81 87
60 64 79 87 82 76 64 48 42 40 44 47 47 50 56 67 71 73 61 66 73 76 73 74 76 77 78 75 72 72 63 26 26 35 38 42 51 69 82 86 98 92 94
57 71 94 78 71 61 50 43 40 39 43 44 42 41 39 44 61 65 73 75 75 71 70 70 70 71 72 55 45 35 22 20 31 38 34 37 42 47 47 70 80 90 96
58 72 87 73 60 49 45 40 39 41 43 44 37 34 32 32 37 35 35 38 57 59 64 68 69 70 71 55 33 25 19 18 29 34 34 40 41 39 45 64 69 75 80
63 66 69 70 68 48 45 43 43 42 41 40 37 36 34 32 29 26 27 31 31 33 35 35 34 36 26 23 22 20 18 16 15 34 33 32 36 37 60 68 68 67 69
67 63 59 60 60 61 61 48 46 44 44 43 40 38 35 37 33 33 36 34 27 26 26 26 26 25 23 23 29 25 19 20 34 30 31 33 34 27 64 66 70 68 65
64 59 57 58 57 54 55 64 50 48 46 46 47 43 43 37 37 37 36 30 30 29 28 27 27 26 29 34 32 33 32 34 30 31 33 34 34 40 65 66 67 70 68
61 59 57 56 54 55 50 55 58 58 51 47 45 45 38 35 37 37 43 41 42 39 42 40 41 36 34 32 30 31 29 28 30 34 34 35 34 57 70 67 68 70 71
56 55 54 54 53 51 53 52 51 52 49 48 49 48 40 39 41 39 40 44 47 41 42 43 40 36 36 33 31 29 29 28 32 37 38 40 36 50 72 70 69 71 82
53 52 52 53 54 52 49 50 42 45 46 43 45 46 40 41 42 40 41 46 46 44 42 43 40 36 35 32 30 28 29 30 32 40 42 44 41 38 66 75 71 72 79
53 51 52 52 49 50 52 45 44 43 44 42 45 44 47 45 45 46 46 47 49 49 45 44 41 38 35 32 28 30 33 38 39 45 46 47 46 44 46 76 72 71 76
53 50 52 52 48 46 43 47 44 45 45 46 44 48 52 52 51 51 50 48 51 51 48 46 43 38 34 32 32 37 48 51 52 52 51 50 52 50 70 89 88 88 86
52 52 54 50 50 49 46 49 47 47 44 47 51 54 57 58 58 57 55 54 53 53 52 48 43 41 35 34 34 49 54 55 52 52 54 54 54 57 59 64 76 88 83
53 53 52 47 52 50 46 49 44 47 48 51 52 50 53 57 58 59 57 54 56 57 54 51 44 43 39 37 41 54 58 60 58 56 56 59 65 63 64 69 62 64 86
52 51 51 51 54 53 50 50 48 49 50 47 46 49 50 52 58 58 54 54 56 58 56 52 46 44 42 42 42 57 64 66 63 60 61 62 67 68 69 70 70 73 71
51 47 50 52 53 54 57 54 47 47 47 45 46 49 53 53 56 61 58 57 58 56 53 49 46 46 42 44 43 57 65 69 66 66 62 60 64 64 62 63 66 66 66
49 50 49 50 54 57 55 48 43 42 45 46 47 51 50 53 56 58 59 60 58 57 56 50 47 46 43 47 42 38 60 66 65 64 62 60 61 61 61 62 60 65 65
49 52 51 53 54 55 50 46 46 44 47 46 54 51 52 52 57 57 58 59 60 60 57 52 51 52 42 49 48 45 46 54 59 63 64 62 59 58 60 61 61 64 67
45 53 51 52 53 54 53 56 53 52 47 51 51 48 52 50 58 63 63 63 61 65 61 58 56 56 50 46 52 50 45 43 41 52 61 64 59 52 51 57 58 63 70
41 53 52 52 53 52 56 54 50 44 38 40 45 48 49 50 56 62 67 67 65 64 63 60 53 58 53 49 49 50 59 54 48 45 48 55 50 44 49 59 60 59 72
42 54 56 54 54 50 57 55 52 50 43 44 46 48 47 48 52 60 64 72 72 70 66 66 63 58 55 55 52 53 52 51 54 53 51 41 41 44 49 60 66 68 77
48 56 60 55 53 52 57 59 56 52 50 47 47 45 44 45 49 61 63 69 72 72 72 69 66 62 61 59 60 56 56 52 49 51 53 50 51 45 50 56 62 65 73

GFSSE_925_rhum_222.txt.gz
RH
79 67 60 62 71 80 89 92 88 87 80 76 79 76 76 77 78 76 76 77 76 74 76 77 79 81 84 89 92 97 95 97 92 92 85 81 59 44 54 72 75 94 92
71 62 66 72 82 88 92 90 85 76 63 56 54 69 70 71 72 73 72 73 72 74 73 75 76 78 80 80 81 85 90 85 85 87 83 78 82 72 48 55 59 78 89
70 73 74 82 89 90 92 86 75 59 46 41 44 61 68 72 75 74 72 72 73 75 76 77 79 82 82 82 83 83 86 50 58 77 79 78 87 82 70 49 61 59 66
69 80 81 86 88 92 87 75 60 43 37 37 45 60 70 72 72 73 70 71 74 75 76 77 78 81 82 83 80 79 76 24 21 34 63 67 77 88 86 80 60 83 95
63 77 78 88 91 84 73 58 42 38 40 43 46 64 68 70 72 74 68 70 76 77 75 76 78 79 79 76 74 73 69 26 19 28 41 51 63 76 87 95 94 94 89
74 77 77 85 81 72 58 43 38 39 42 44 45 46 63 69 72 68 72 76 78 74 72 73 73 74 76 76 72 70 50 21 19 27 34 38 41 56 64 73 84 96 92
75 73 82 79 69 59 46 40 38 40 43 40 37 33 33 39 40 39 42 46 68 68 66 68 68 69 65 42 33 30 20 17 18 29 35 35 39 42 44 58 70 78 86
69 76 80 72 61 49 42 39 40 40 39 36 34 33 31 30 31 29 27 29 30 32 34 41 50 64 60 51 35 21 17 15 13 13 31 34 35 39 54 65 70 70 73
67 75 76 67 55 49 45 43 43 40 39 38 37 36 33 32 28 26 28 32 26 24 24 25 27 31 29 23 28 27 23 15 25 30 32 32 34 41 54 67 70 71 68
65 67 68 68 58 51 47 46 46 44 42 42 40 38 35 39 38 38 37 30 28 28 27 26 25 25 28 33 32 31 30 33 32 31 31 32 33 33 54 66 69 72 71
64 62 59 61 59 60 59 55 49 47 45 45 45 44 38 37 37 37 37 39 40 40 40 40 39 36 34 34 32 31 30 29 28 31 34 34 35 35 61 70 70 70 72
63 59 58 58 57 55 53 54 59 59 51 49 46 46 40 35 38 40 41 43 47 44 43 43 43 38 36 35 32 30 29 29 29 34 36 37 38 38 68 73 72 71 72
64 59 58 57 53 54 53 53 55 55 52 49 49 47 42 41 42 41 40 45 46 45 44 43 42 38 36 34 31 29 28 30 30 34 41 42 43 41 71 75 75 73 74
60 57 55 55 54 53 51 51 47 46 46 44 46 46 41 42 44 43 44 46 48 48 47 45 43 40 37 35 31 29 30 36 37 36 46 46 48 43 76 76 73 73 73
56 53 53 54 52 51 48 45 44 43 42 44 43 44 46 47 48 48 49 49 50 51 50 48 45 42 37 34 32 32 46 50 51 50 50 50 51 47 75 80 81 86 81
53 52 52 52 50 49 45 46 45 45 46 42 44 48 49 53 54 54 53 52 52 53 52 51 47 42 38 34 34 44 53 55 54 54 53 53 54 57 57 80 87 88 83
54 52 53 53 49 45 45 48 47 46 45 46 50 54 56 57 58 58 58 55 54 55 56 52 47 44 42 38 37 52 58 60 58 55 56 58 64 67 68 69 73 87 84
54 52 54 50 49 48 47 48 47 47 48 51 54 50 50 53 56 58 57 56 56 56 58 53 47 45 43 42 42 52 63 64 62 60 61 64 64 69 70 71 70 73 83
54 54 54 47 50 50 48 46 47 49 49 49 46 48 50 51 55 56 57 55 56 57 56 51 46 46 44 43 43 43 64 68 66 63 62 62 65 64 63 65 66 73 70
55 53 52 50 52 52 50 51 48 48 48 45 47 48 42 50 53 58 59 58 58 58 55 52 46 47 45 44 44 43 62 68 67 65 63 61 63 62 62 62 61 67 74
54 50 52 53 54 54 55 50 47 46 46 46 46 46 44 49 48 50 60 60 59 58 58 53 50 50 45 44 45 41 47 65 66 65 64 62 61 61 62 62 61 63 70
52 50 52 52 55 56 51 48 44 43 46 45 46 42 42 42 50 55 57 60 61 61 60 57 55 55 49 48 51 54 62 65 61 65 64 64 60 56 52 56 60 62 69
51 53 52 52 55 54 50 48 45 44 45 39 42 44 47 40 47 50 56 60 62 63 64 60 59 57 55 52 50 57 71 70 57 59 62 63 59 49 46 54 58 58 69
48 54 53 53 54 54 51 47 44 42 46 45 46 46 41 42 44 44 50 61 64 65 65 63 55 57 54 54 52 53 55 57 71 74 49 57 46 43 47 52 66 61 74
45 54 53 53 54 53 51 49 51 48 45 43 43 42 44 44 43 42 46 59 63 69 68 67 64 63 59 55 57 56 56 53 53 67 75 57 49 48 48 50 62 70 75
52 56 56 55 55 51 51 51 54 52 50 46 45 45 45 44 46 47 46 47 60 68 68 69 68 65 63 61 60 60 58 59 60 63 74 69 63 50 50 49 58 64 72

GFSSE_925_rhum_225.txt.gz
RH
88 77 63 64 75 87 91 87 82 79 72 80 77 74 75 77 75 74 74 74 75 75 75 77 78 80 82 81 86 94 93 98 90 89 86 80 76 54 52 60 79 94 92
80 69 64 76 81 91 91 84 77 64 55 55 70 71 74 76 76 76 75 74 77 77 77 78 79 82 82 83 83 85 89 80 71 82 82 82 81 87 64 52 56 78 90
61 64 74 82 88 93 86 79 63 48 40 49 69 72 75 76 76 73 73 75 74 76 77 77 80 83 82 84 79 77 72 32 28 47 73 69 85 87 73 68 53 61 68
54 66 82 86 92 86 79 64 47 39 44 50 71 71 72 73 75 72 70 74 79 78 78 80 80 82 82 80 78 77 76 36 21 23 48 53 79 89 89 86 83 78 87
63 75 85 88 89 78 66 49 39 40 42 43 50 68 70 74 72 70 72 78 80 77 75 76 75 76 77 76 73 71 54 22 19 33 36 41 49 68 84 89 89 91 90
82 81 87 84 76 64 53 41 41 40 39 36 36 44 65 69 71 75 73 71 73 70 69 70 72 72 74 72 69 67 50 17 16 22 35 36 38 52 58 63 65 82 91
86 83 84 75 62 53 44 41 40 39 38 38 34 37 49 48 36 36 28 28 32 48 65 68 67 68 69 68 65 37 19 16 14 13 31 34 35 42 58 61 68 72 77
76 78 75 63 54 46 43 40 41 41 38 35 34 33 31 30 27 24 27 29 27 27 32 41 55 62 58 52 39 30 28 22 20 25 30 33 32 44 58 65 71 73 71
71 70 59 56 51 45 43 42 43 42 40 38 36 34 32 36 36 34 32 28 28 29 30 31 31 37 39 36 35 31 31 35 33 31 32 32 34 50 54 60 71 72 74
74 71 56 50 47 44 43 43 45 44 42 41 38 36 38 38 40 34 36 39 40 39 40 40 38 37 35 33 33 31 30 29 28 30 34 34 36 51 55 66 70 72 74
69 66 63 61 59 58 57 51 48 47 45 44 44 41 42 38 37 39 41 43 44 43 43 42 44 47 36 34 32 30 29 29 29 32 37 38 43 54 59 71 74 73 73
67 67 62 60 61 60 58 54 54 55 50 48 47 46 42 37 40 42 42 45 46 46 45 44 43 40 37 35 32 30 29 30 30 32 41 44 48 58 66 74 77 76 75
62 60 61 59 58 58 54 54 56 54 50 48 48 45 38 42 43 44 45 46 48 49 46 45 42 41 38 35 32 30 32 41 40 33 44 48 48 62 72 77 75 74 77
64 60 59 58 56 56 55 55 56 53 48 47 49 45 39 43 46 47 46 49 49 51 49 47 46 43 37 35 33 34 48 52 53 49 50 51 52 62 76 76 76 80 84
65 61 58 57 55 53 52 49 45 45 45 46 45 43 46 46 48 50 50 52 52 53 50 50 47 43 39 36 34 44 54 57 55 54 53 54 56 69 77 78 81 85 81
64 59 56 55 53 50 48 46 44 45 45 45 42 48 49 50 49 54 53 53 54 54 51 52 48 43 41 38 35 53 60 61 58 54 57 59 65 68 85 81 82 84 80
60 54 53 52 50 50 43 45 46 46 45 42 48 51 51 49 50 50 54 54 56 53 55 54 45 44 41 39 35 55 64 64 60 61 64 64 67 70 74 80 84 82 82
54 54 53 52 50 46 46 46 46 44 41 50 54 50 49 48 48 47 54 55 56 54 56 53 46 44 42 43 36 47 66 67 65 63 63 63 64 65 66 67 69 79 82
55 53 53 53 49 46 48 47 45 45 49 52 48 46 48 47 53 48 53 56 57 55 57 53 45 46 46 44 38 43 66 66 67 65 63 64 63 63 63 62 65 71 74
55 54 54 51 48 50 48 46 48 47 49 47 44 46 42 44 47 48 56 59 59 57 58 53 49 45 46 47 38 39 52 66 66 63 63 63 63 62 62 61 61 72 74
56 55 54 49 51 51 49 48 47 46 46 45 46 44 38 43 42 43 56 60 60 60 60 56 51 47 49 50 40 39 47 66 66 65 63 63 59 57 55 54 60 62 72
56 55 53 51 54 51 48 43 45 45 47 46 46 42 38 39 42 46 51 58 62 61 61 59 56 53 48 53 53 62 68 62 59 59 64 64 62 54 45 42 54 57 69
56 53 54 53 53 53 48 50 47 48 48 47 44 37 42 39 39 42 47 54 61 63 62 61 57 55 54 51 53 56 64 73 68 62 63 65 59 47 45 46 50 57 70
53 52 53 52 54 55 52 49 46 43 38 39 41 44 45 40 39 41 43 50 58 64 63 64 62 59 58 55 54 54 57 59 72 77 50 56 51 46 48 49 50 66 76
52 54 53 54 57 55 52 48 43 46 47 45 45 43 41 41 42 40 41 45 52 61 64 65 62 61 59 59 58 59 57 56 61 73 84 63 51 49 51 50 50 66 76
57 56 55 56 57 55 54 51 52 49 49 46 44 42 42 44 44 45 45 42 48 54 59 61 65 64 61 62 60 62 62 61 63 66 81 78 71 54 47 50 49 54 64

GFSSE_925_rhum_228.txt.gz
RH
86 88 82 81 89 89 95 87 81 75 72 77 77 76 77 78 78 77 75 77 79 78 79 80 82 82 82 82 85 89 95 82 81 86 86 83 81 72 55 62 79 90 91
82 88 76 92 90 98 88 81 71 58 56 72 73 76 78 78 76 76 77 75 78 78 76 79 82 83 84 83 81 82 82 77 48 71 80 80 84 87 79 62 57 72 85
79 76 77 91 94 98 84 74 58 47 55 72 74 77 76 78 75 73 75 78 78 79 80 82 82 82 81 80 78 77 77 58 26 30 52 60 83 86 84 71 66 63 73
66 72 85 86 97 85 76 60 49 55 58 74 73 73 75 77 73 73 77 80 79 78 79 78 78 79 78 79 76 74 72 38 20 30 42 50 61 92 91 90 93 94 92
67 76 85 91 88 77 64 53 50 54 58 73 71 73 76 72 74 76 79 77 75 73 73 74 74 74 76 75 73 71 69 25 19 24 37 42 52 72 76 78 78 82 91
72 81 89 92 81 65 53 49 50 50 54 55 57 60 71 72 72 70 71 70 70 70 71 71 71 72 73 72 68 64 54 18 15 18 35 36 38 54 61 63 64 71 79
82 90 92 84 69 56 46 43 46 44 50 46 48 55 67 66 62 40 34 32 53 63 65 67 68 68 67 66 63 58 42 26 24 22 27 34 34 52 58 64 68 71 72
88 91 86 71 59 49 41 43 45 43 42 38 37 33 32 32 31 29 29 28 30 32 37 60 64 63 62 61 57 37 34 34 32 32 32 31 32 51 55 60 71 73 74
84 86 76 60 53 44 41 42 44 43 40 37 35 32 36 35 33 34 36 38 38 39 41 52 64 60 56 52 35 30 29 29 28 31 33 35 38 51 55 62 69 73 75
83 75 60 53 46 42 42 43 44 43 41 39 37 38 38 36 34 39 42 43 43 42 44 57 66 56 44 34 32 30 28 28 29 33 37 40 53 55 58 67 73 74 74
81 66 52 48 46 45 46 46 47 46 43 43 44 41 38 36 39 42 42 45 46 45 44 53 55 40 37 34 32 29 29 30 30 32 42 45 58 60 64 72 76 77 75
82 68 57 56 56 57 57 54 52 49 47 46 45 42 39 38 43 44 44 46 48 49 46 44 42 40 36 34 32 31 36 47 38 34 44 49 63 63 71 76 78 76 78
71 66 64 60 60 60 58 55 56 50 48 48 48 43 37 42 44 45 47 48 49 50 47 43 43 40 36 35 33 39 52 54 53 44 49 51 65 68 75 75 74 75 78
71 65 64 62 60 59 56 54 55 53 49 48 49 45 37 42 46 48 49 49 51 51 49 47 45 41 38 35 35 52 58 56 56 54 52 55 67 77 84 85 88 90 85
65 64 63 62 60 59 57 57 53 52 48 46 47 42 44 42 46 48 49 51 52 53 49 48 45 41 39 36 36 60 62 61 55 55 56 58 64 84 80 79 81 81 78
64 62 61 58 56 54 54 52 46 47 45 46 44 44 48 46 45 47 49 51 53 54 52 51 44 41 39 36 39 59 66 63 60 61 65 66 69 78 84 82 81 80 80
68 64 61 58 57 55 51 47 45 45 46 44 42 48 50 45 42 44 50 54 55 53 52 51 44 40 39 37 37 56 67 66 65 65 65 65 69 70 72 81 87 83 81
69 65 59 57 54 51 46 43 45 46 44 40 50 51 46 43 44 44 51 55 56 53 54 52 44 40 42 42 38 47 68 69 66 65 64 64 64 64 63 65 70 86 86
68 64 56 54 52 49 46 47 48 45 41 50 52 44 46 42 46 46 52 56 58 54 55 51 44 43 45 43 35 42 64 68 66 66 64 64 63 62 61 62 64 75 74
66 58 55 54 52 48 48 48 47 46 50 52 46 45 43 39 43 45 52 57 58 56 56 54 46 42 48 46 36 40 50 68 67 64 64 63 60 58 56 55 61 65 74
58 56 55 54 51 47 50 48 49 49 50 47 44 44 37 40 39 40 50 56 58 58 58 56 48 45 46 48 42 40 56 67 69 67 64 61 60 54 45 40 48 60 69
59 57 55 53 50 49 47 47 46 45 48 45 46 44 38 37 38 40 45 52 57 60 58 56 51 49 48 52 55 60 70 56 48 51 66 66 63 50 44 47 47 52 64
62 58 54 52 49 50 49 47 45 48 48 49 48 45 39 39 36 39 42 48 56 59 59 58 53 52 53 51 56 56 60 64 72 54 62 64 50 49 47 49 50 57 65
61 58 55 53 50 52 52 46 47 48 49 46 41 38 43 39 37 39 40 47 52 58 60 61 61 57 57 54 55 55 58 62 72 77 53 54 51 44 50 51 51 59 70
60 57 55 54 55 56 51 51 48 47 41 44 45 45 42 40 40 41 41 42 47 54 58 61 61 60 57 58 58 58 58 60 65 76 86 68 49 45 50 47 51 53 64
61 57 56 56 58 57 54 52 47 43 48 46 46 43 41 42 43 44 45 43 46 51 54 56 58 60 59 60 60 60 63 63 64 68 84 81 77 54 44 44 49 52 55

GFSSE_925_rhum_234.txt.gz
RH
79 81 82 91 79 95 99 97 94 87 82 81 80 81 80 79 79 80 79 80 80 81 83 83 84 82 82 82 81 81 81 80 60 68 76 77 82 85 73 63 81 90 89
71 79 90 83 90 94 100 87 74 78 80 81 80 80 79 78 78 78 80 82 81 83 83 84 82 83 82 80 79 78 78 76 26 36 59 70 87 85 91 73 69 66 88
74 90 82 72 94 93 95 74 58 67 80 81 80 80 79 76 78 82 82 81 80 79 78 78 79 79 78 77 76 76 75 66 22 32 52 71 92 92 92 90 92 92 90
80 86 69 92 89 98 84 62 58 79 79 79 79 80 75 78 82 81 77 75 75 75 76 76 77 77 75 73 70 68 67 28 18 31 47 72 85 81 81 84 86 88 92
88 80 85 90 91 98 74 59 69 79 78 78 80 77 79 79 75 75 72 73 74 74 75 76 75 74 72 70 66 68 68 20 16 21 37 46 58 66 71 75 76 76 80
91 75 87 88 98 86 63 55 78 78 76 76 76 77 74 73 70 67 69 70 72 71 72 71 70 69 67 64 63 63 47 30 28 21 34 36 39 59 65 69 74 74 75
82 86 94 95 98 75 58 65 80 76 75 73 76 73 69 67 65 62 65 67 70 71 72 71 68 65 63 60 58 57 30 28 28 28 29 30 35 55 60 65 69 73 75
99 93 98 99 79 66 60 67 76 76 72 69 68 67 63 63 61 63 64 68 69 70 71 73 67 62 60 60 57 38 27 27 29 32 33 36 48 58 61 64 70 74 76
97 99 100 92 67 58 55 56 56 64 48 44 52 44 44 46 49 45 51 64 69 71 70 69 65 60 40 35 30 28 28 28 28 35 40 47 63 64 65 69 74 75 76
98 100 100 81 62 55 52 52 50 44 39 35 36 34 35 39 41 43 45 47 55 66 67 67 49 35 34 31 29 31 40 36 29 42 47 66 67 66 70 74 77 78 77
99 100 93 72 58 51 49 52 48 44 40 37 38 38 35 40 42 43 46 48 48 47 43 43 39 35 34 32 35 48 51 45 34 44 50 73 70 71 76 78 78 77 80
99 100 84 65 54 49 49 51 49 45 43 42 39 36 36 42 44 44 47 48 48 48 45 43 39 36 34 33 49 54 54 54 44 49 54 80 77 85 81 80 80 81 81
100 99 81 60 52 48 48 50 51 46 45 44 42 38 40 43 45 47 48 48 49 48 42 40 37 35 34 38 56 59 57 55 52 53 56 79 80 76 81 83 79 74 75
100 91 76 60 52 50 52 53 52 47 46 46 45 37 40 43 46 46 46 48 48 44 42 38 37 36 34 40 61 62 60 57 58 57 61 70 87 79 76 77 79 78 77
98 88 70 59 53 56 57 56 56 51 48 48 47 41 41 43 44 46 47 48 49 45 44 41 37 36 34 45 62 64 61 60 63 65 68 72 76 88 81 76 76 78 78
90 79 68 59 58 60 60 57 58 56 50 49 47 42 46 44 43 45 46 49 48 45 47 43 37 38 37 37 62 68 66 66 66 64 65 67 68 69 87 83 81 81 80
85 77 66 64 63 64 62 59 60 58 50 48 45 45 48 44 42 44 47 48 48 47 48 40 38 39 38 36 56 69 69 68 67 65 63 63 62 61 62 83 90 88 84
82 77 70 68 66 66 63 60 55 52 47 46 45 48 46 42 44 43 46 48 49 48 46 40 37 40 40 35 47 68 70 70 68 67 64 63 62 60 58 60 63 72 93
79 75 72 70 67 67 63 56 50 48 48 46 45 50 45 42 43 43 46 49 50 49 47 42 39 40 42 38 42 61 69 67 65 65 65 60 56 48 43 38 46 62 71
77 73 71 69 66 62 57 53 50 50 49 46 52 46 45 42 42 44 48 50 51 48 47 42 41 42 44 41 45 50 70 69 68 65 61 58 52 46 47 47 45 45 62
78 72 69 66 62 60 54 52 52 50 49 53 52 47 44 41 40 42 46 48 48 46 46 43 40 41 42 44 39 52 65 73 69 54 65 64 53 48 47 49 50 48 55
82 76 71 66 63 58 52 48 49 49 52 52 50 46 41 40 39 41 43 45 47 48 48 46 43 43 47 48 50 53 61 56 47 61 67 67 53 50 44 50 51 54 61
87 82 75 67 61 56 52 50 49 51 51 52 50 46 41 40 39 40 41 43 46 49 49 49 48 45 47 53 52 53 63 60 72 48 54 56 54 39 43 49 45 52 64
85 82 77 68 60 56 54 50 46 48 52 50 46 46 42 41 40 42 41 42 45 49 51 53 52 50 48 50 52 55 59 64 74 68 52 50 40 37 40 40 42 50 57
84 80 76 66 58 56 53 49 46 44 44 46 48 48 43 44 43 43 42 43 45 49 52 54 53 53 52 53 54 56 60 64 68 76 79 61 43 37 36 39 39 50 54
84 79 72 62 59 56 54 53 48 42 47 47 47 46 48 45 44 45 45 45 45 49 52 54 55 54 54 55 57 59 62 64 67 70 82 79 75 46 36 36 36 49 54

GFSSE_925_rhum_240.txt.gz
RH
59 68 82 93 94 98 98 96 90 86 85 83 83 83 83 82 82 82 83 84 85 85 83 82 81 80 80 79 79 79 77 56 44 63 77 86 86 94 87 66 73 72 90
56 70 88 88 95 95 98 92 86 84 84 83 82 80 80 81 83 84 84 82 80 79 78 78 77 76 74 73 72 72 57 21 31 59 77 81 84 97 97 90 86 94 97
55 76 97 86 95 86 98 78 85 85 85 84 81 77 81 84 83 78 78 78 77 76 76 77 75 72 70 70 71 70 24 16 24 48 64 60 79 89 90 89 91 94 94
60 80 88 87 92 87 92 82 84 85 84 84 78 80 84 81 76 75 76 77 77 76 76 76 74 73 71 71 72 67 17 15 22 40 53 60 59 80 83 84 84 85 80
68 74 82 92 83 96 87 84 84 84 83 80 80 82 78 76 74 76 76 77 77 77 76 74 72 70 68 68 67 58 22 18 20 40 52 63 56 68 72 74 73 75 76
76 73 88 92 85 94 87 85 82 84 84 80 81 77 75 72 74 75 76 79 78 78 75 72 70 68 68 66 66 50 25 24 33 38 40 48 50 64 67 72 73 76 76
76 70 98 89 93 92 87 85 82 83 80 79 77 73 71 71 74 76 76 76 78 79 76 72 69 68 66 65 64 27 24 26 35 37 41 49 57 65 69 72 74 77 80
67 84 96 90 92 86 86 84 82 80 82 76 73 70 69 73 74 74 76 76 76 76 73 71 66 65 64 54 30 27 25 32 39 45 52 53 68 70 72 76 77 76 79
70 80 91 94 88 82 78 77 77 78 78 74 71 71 72 74 74 76 76 76 75 75 72 59 39 34 33 31 34 40 28 33 47 53 51 57 73 75 76 79 78 77 78
83 85 92 85 76 73 77 71 67 61 64 68 62 46 44 42 42 46 59 58 63 70 55 36 32 30 30 36 46 45 31 41 45 53 59 72 78 76 76 77 77 79 82
93 93 94 76 68 65 66 73 58 49 47 40 35 36 42 49 54 62 46 44 42 40 38 34 31 30 37 47 49 47 45 42 46 56 67 84 90 87 86 84 86 76 78
98 100 91 74 67 64 63 67 60 60 52 48 46 43 43 47 52 58 46 44 40 38 34 32 30 31 48 51 54 50 45 44 48 61 79 77 75 78 79 82 72 72 79
92 100 91 73 67 64 64 63 60 52 51 48 46 46 49 54 53 53 55 54 51 44 44 43 39 40 52 53 54 52 49 48 50 63 85 79 76 70 71 74 70 76 82
93 100 93 76 71 66 66 60 55 52 52 47 46 51 51 54 52 49 49 55 52 47 45 43 38 41 52 58 54 51 53 54 57 64 73 74 84 82 85 84 85 82 71
91 100 95 79 69 67 64 61 57 52 51 49 48 51 51 52 49 51 51 52 52 49 43 42 39 38 47 55 57 58 59 57 58 60 65 64 85 92 84 87 86 84 81
89 100 94 78 66 66 62 62 57 57 56 53 51 52 54 52 52 52 54 54 53 50 45 42 42 41 42 53 57 60 59 59 57 58 57 64 57 64 92 91 84 85 80
91 96 93 76 68 66 63 65 62 62 55 55 54 56 56 56 56 56 54 54 54 49 46 45 46 43 42 56 58 59 58 56 55 56 57 56 52 45 47 81 93 86 85
97 96 93 77 70 66 66 69 67 63 60 57 56 60 57 50 56 58 56 55 54 52 48 46 45 43 43 50 56 62 60 59 56 54 52 51 51 51 51 37 49 90 91
94 99 93 81 73 70 72 71 72 66 60 57 56 60 59 45 51 55 55 56 56 54 50 45 50 47 44 50 57 64 63 61 59 56 52 53 56 55 55 53 42 52 78
99 97 90 80 74 74 77 76 73 69 62 61 60 59 56 55 46 58 58 56 55 53 50 50 49 53 50 49 53 65 68 69 65 62 58 51 53 50 53 58 57 66 63
98 94 88 82 77 79 78 72 69 64 65 64 57 58 52 55 52 59 58 57 55 49 48 46 49 48 52 54 51 62 68 71 57 63 66 57 55 49 52 52 57 60 69
94 93 88 84 82 78 74 69 64 62 64 63 62 60 58 52 45 60 58 58 55 53 51 48 47 47 51 55 41 42 41 52 50 58 65 60 47 48 48 52 51 64 72
92 94 90 86 80 74 74 72 69 72 71 69 67 64 56 49 45 52 57 58 58 55 54 53 52 48 46 54 55 41 36 33 39 49 51 52 42 43 44 50 56 67 73
86 93 92 89 84 75 75 70 63 57 56 56 62 61 50 49 46 42 44 56 60 58 57 57 54 49 46 46 52 56 57 49 36 33 44 46 40 43 46 46 55 66 72
87 93 92 90 88 80 74 67 58 58 58 62 63 62 60 62 53 42 44 44 60 62 63 60 58 53 50 48 47 52 51 52 46 38 32 34 37 42 46 49 55 62 72
90 94 94 89 85 80 75 65 58 56 58 62 63 61 62 63 62 48 48 52 57 63 65 64 62 60 57 58 56 55 49 45 45 43 40 44 48 44 47 49 50 56 67